User: anonymous   Login
Location: Hepcat Sky Observatory
(29.9800°N, 95.6500°W)
Time: 05:48:54
(UTC-06:00)
Language:

Cosmos 2151 Rocket - Orbit

View from above orbital plane
View from above orbital plane
View from above satellite
View from above satellite

Ground track
Ground track

The orbit data is extracted from the following two-line orbital elements,

1 21423U 91042B   17057.15874860  .00000077  00000-0  72395-5 0  9992
2 21423  82.4913  65.1714 0016136 252.7148 107.2300 14.79678822386162
Epoch (UTC): 26 February 2017 03:48:35
Eccentricity: 0.0016136
inclination: 82.4913°
perigee height: 619 km
apogee height: 641 km
right ascension of ascending node: 65.1714°
argument of perigee: 252.7148°
revolutions per day: 14.79678822
mean anomaly at epoch: 107.2300°
orbit number at epoch: 38616

The dashed part of the orbit path shows where the satellite is in the earth's shadow,  

DLR